Gainesville, GA

1:12 PM EST on December 15, 2019 (GMT -0500)
Gilmer Memorial

Weather History for KGVL - August, 2019

Change the Weather History Date:

Tuesday, August 20, 2019

  Actual Average Record
Temperature  
Mean Temperature 79 °F 78 °F  
Max Temperature 89 °F 87 °F 97 °F (1990)
Min Temperature 68 °F 69 °F 56 °F (1940)
Cooling Degree Days 14 13  
Month to date cooling degree days 314 272  
Year to date cooling degree days 1387 1194  
Since 1 June cooling degree days 1051 1019  
Growing Degree Days 28 (Base 50)    
Moisture  
Dew Point 69 °F    
Average Humidity 76    
Maximum Humidity 97    
Minimum Humidity 55    
Precipitation  
Precipitation 0.00 in 0.15 in 3.01 in (1998)
Month to date precipitation 2.13 3.11  
Year to date precipitation 36.97 34.93  
Sea Level Pressure  
Sea Level Pressure 30.10 in    
Wind  
Wind Speed 4 mph (East)    
Max Wind Speed 10 mph    
Max Gust Speed 14 mph    
Visibility 10 miles    
Events      
T = Trace of Precipitation, MM = Missing Value Source: NWS Daily Summary

Daily Weather History Graph

Daily Weather History Graph

Search for Another Location

Airport or City:

Astronomy

Aug. 20, 2019 Rise Set
Actual Time 6:59 AM EDT 8:16 PM EDT
Civil Twilight 6:33 AM EDT 8:43 PM EDT
Nautical Twilight 6:02 AM EDT 9:14 PM EDT
Astronomical Twilight 5:29 AM EDT 9:46 PM EDT
Moon 11:17 PM EDT (8/20) 11:25 AM EDT (8/20)
Length of Visible Light 14h 09m
Length of Day
13h 16m
Waning Gibbous, 78% of the Moon is Illuminated
Aug 20
Waning Gibbous
Aug 23
Last Quarter
Aug 30
New
Sep 5
First Quarter
Sep 14
Full

Hourly Weather History & Observations

Time (EDT) Temp. Heat Index Dew Point Humidity Pressure Visibility Wind Dir Wind Speed Gust Speed Precip Events Conditions
12:53 AM 71.1 °F - 68.0 °F 90% 30.11 in 10.0 mi NNE 5.8 mph - N/A   Clear
1:53 AM 70.0 °F - 68.0 °F 93% 30.10 in 10.0 mi ENE 4.6 mph - N/A   Clear
2:53 AM 70.0 °F - 66.9 °F 90% 30.09 in 10.0 mi NNE 3.5 mph - N/A   Clear
3:53 AM 69.1 °F - 66.9 °F 93% 30.08 in 10.0 mi NE 3.5 mph - N/A   Clear
4:53 AM 69.1 °F - 66.9 °F 93% 30.09 in 10.0 mi ENE 4.6 mph - N/A   Clear
5:53 AM 69.1 °F - 66.9 °F 93% 30.11 in 10.0 mi NE 3.5 mph - N/A   Clear
7:53 AM 70.0 °F - 68.0 °F 93% 30.14 in 10.0 mi Calm Calm - N/A   Clear
8:53 AM 73.9 °F - 68.0 °F 82% 30.14 in 10.0 mi ESE 3.5 mph - N/A   Clear
9:53 AM 75.0 °F - 68.0 °F 79% 30.13 in 10.0 mi ESE 5.8 mph - N/A   Clear
10:53 AM 78.1 °F - 69.1 °F 74% 30.13 in 10.0 mi Variable 5.8 mph - N/A   Clear
11:53 AM 82.9 °F 86.5 °F 69.1 °F 63% 30.14 in 10.0 mi Variable 3.5 mph - N/A   Clear
12:53 PM 86.0 °F 89.4 °F 68.0 °F 55% 30.14 in 10.0 mi Variable 5.8 mph - N/A   Clear
1:53 PM 82.9 °F 85.8 °F 68.0 °F 60% 30.13 in 10.0 mi Calm Calm - N/A   Mostly Cloudy
2:53 PM 86.0 °F 90.1 °F 69.1 °F 57% 30.09 in 10.0 mi Variable 6.9 mph - N/A   Mostly Cloudy
3:53 PM 84.9 °F 88.2 °F 68.0 °F 57% 30.07 in 10.0 mi Variable 3.5 mph - N/A   Scattered Clouds
4:53 PM 86.0 °F 90.1 °F 69.1 °F 57% 30.06 in 10.0 mi ESE 5.8 mph - N/A   Clear
5:53 PM 87.1 °F 92.0 °F 70.0 °F 57% 30.06 in 10.0 mi South 5.8 mph - N/A   Clear
6:53 PM 86.0 °F 90.1 °F 69.1 °F 57% 30.06 in 10.0 mi ESE 6.9 mph - N/A   Partly Cloudy
7:53 PM 82.0 °F 85.9 °F 70.0 °F 67% 30.08 in 10.0 mi ENE 8.1 mph - N/A   Scattered Clouds
8:53 PM 79.0 °F - 70.0 °F 74% 30.10 in 10.0 mi NE 5.8 mph - N/A   Scattered Clouds
9:53 PM 75.9 °F - 72.0 °F 87% 30.09 in 10.0 mi East 4.6 mph - N/A   Partly Cloudy
10:53 PM 75.0 °F - 72.0 °F 90% 30.11 in 10.0 mi ESE 3.5 mph - N/A   Mostly Cloudy
11:53 PM 73.9 °F - 72.0 °F 93% 30.10 in 10.0 mi SSE 3.5 mph - N/A   Clear